Overview Statistics Trail Chart Weather Telemetry Raw packets
 

This is the latest recevied weather packets stored in our database for station/object KB0BS-13. If no packets are shown the sender has not sent any weather packets the latest 10 day(s).

<< 76 77 78 79 80 81 82 >>
Time Temp. Humidity Pressure Rain* Wind** Luminosity Snow
1777142081 7.22° C 93% 1018.9 hPa 0 mm - 280 W/m² -
1777141777 7.22° C 92% 1019.1 hPa 0 mm - 312 W/m² -
1777141474 6.67° C 92% 1019 hPa 0 mm - 306 W/m² -
1777141172 6.67° C 95% 1018.8 hPa 0 mm - 219 W/m² -
1777140869 6.67° C 95% 1018.8 hPa 0 mm - 229 W/m² -
1777140566 6.11° C 96% 1018.9 hPa 0 mm - 196 W/m² -
1777140263 6.11° C 96% 1018.9 hPa 0 mm - 98 W/m² -
1777139960 6.11° C 97% 1018.9 hPa 0 mm - 146 W/m² -
1777139657 6.11° C 96% 1019 hPa 0 mm - 140 W/m² -
1777139353 6.11° C 97% 1019 hPa 0 mm - 110 W/m² -
1777139049 6.11° C 97% 1019.1 hPa 0 mm - 121 W/m² -
1777138746 6.11° C 97% 1018.9 hPa 0 mm - 109 W/m² -
1777138446 6.11° C 96% 1018.9 hPa 0 mm - 111 W/m² -
1777138143 6.11° C 95% 1018.9 hPa 0 mm - 110 W/m² -
1777137839 6.11° C 96% 1018.6 hPa 0 mm - 138 W/m² -
1777137535 6.11° C 97% 1018.6 hPa 0 mm - 131 W/m² -
1777137233 6.11° C 98% 1018.3 hPa 0 mm - 161 W/m² -
1777136930 5.56° C 97% 1018.7 hPa 0 mm - 152 W/m² -
1777136625 6.11° C 97% 1018.7 hPa 0 mm - 166 W/m² -
1777136323 5.56° C 98% 1018.8 hPa 0 mm - 126 W/m² -
1777136021 5.56° C 97% 1018.8 hPa 0 mm - 175 W/m² -
1777135716 6.11° C 96% 1018.9 hPa 0 mm - 187 W/m² -
1777135412 6.11° C 98% 1018.8 hPa 0 mm - 214 W/m² -
1777135110 5.56° C 98% 1018.7 hPa 0 mm - 161 W/m² -
1777134807 5.56° C 99% 1018.8 hPa 0 mm - 157 W/m² -

* Rain latest hour (hover to see other rain measurements)
** Current wind speed in m/s (hover to see current wind gust speed)